Current Weather Conditions
Home Hang gliding Paragliding Powered Parachute Powered Paragliding Skydiving Ultralight Weather Aviation Shirts
WEATHER DATA:
Weather observations for the past three days for
Chicago / West Chicago, Dupage Airport
Imperial (Metric)
Date Time (cdt) Wind (mph) Vis. (mi.) Weather Sky Cond. Temperature (F) Relative Humidity Wind Chill (F) Heat Index (F) Pressure Precipitation (in)
Air Dwpt 6 hour altimeter (in) sea level (mb) 1 hr 3 hr 6 hr
Max. Min.
24 22:52 NE 6 10.00 Fair CLR 66.9 61 81% 30.19 1021.8
24 21:52 NE 6 10.00 Mostly Cloudy BKN041 69.1 61 76% 30.18 1021.6
24 20:52 E 5 10.00 Overcast SCT029 OVC036 71.1 61 71% 30.17 1021.3
24 19:52 E 8 10.00 Overcast BKN029 OVC034 71.1 62.1 73% 30.16 1021.0
24 18:52 E 10 10.00 Partly Cloudy SCT036 73 63 77 73 71% 30.14 1020.3
24 17:52 E 8 10.00 Overcast BKN030 OVC038 73.9 63 69% 30.13 1020.0
24 16:52 NE 9 10.00 Overcast OVC027 75 64 69% 77 30.13 1019.9
24 15:52 Vrbl 6 10.00 Mostly Cloudy BKN055 BKN070 75 64 69% 77 30.14 1020.1
24 14:52 NE 5 10.00 Overcast FEW026 BKN040 OVC047 75 64 69% 77 30.13 1019.9
24 13:52 E 8 10.00 Overcast OVC050 75.9 64.9 69% 78 30.13 1019.9
24 12:52 N 8 10.00 Overcast SCT027 BKN034 OVC045 75 64 75.9 68 69% 77 30.15 1020.5
24 11:52 E 6 10.00 Overcast SCT023 OVC030 73.9 64.9 74% 30.14 1020.3
24 10:52 E 5 10.00 Overcast BKN020 BKN028 OVC046 73.9 64.9 74% 30.14 1020.3
24 09:52 NE 5 10.00 Overcast SCT013 OVC020 73 64.9 76% 30.14 1020.1
24 08:52 NE 5 10.00 Mostly Cloudy BKN012 BKN017 72 66 82% 30.14 1020.0
24 07:52 NE 6 8.00 Mostly Cloudy BKN017 69.1 64.9 87% 30.12 1019.5
24 06:52 N 3 5.00 Fog/Mist FEW011 68 64.9 68 64.9 90% 30.1 1018.9
24 05:52 N 3 6.00 Fog/Mist OVC011 66.9 64 91% 30.1 1018.7
24 04:52 NW 7 7.00 Overcast OVC009 66.9 64 91% 30.08 1018.1
24 03:52 NW 5 6.00 Fog/Mist OVC010 66.9 64 91% 30.07 1017.7
24 02:52 Calm 6.00 Fog/Mist CLR 66 63 90% 30.06 1017.3
24 01:52 W 3 6.00 Fog/Mist BKN065 BKN120 66.9 64 91% 30.06 1017.4
24 00:52 W 5 3.00 Light Rain Fog/Mist FEW042 BKN080 OVC110 68 64 73.9 66.9 87% 30.04 1016.8 0.03 0.04
23 23:52 W 7 7.00 A Few Clouds FEW110 69.1 64.9 87% 30.05 1017.2
23 22:52 W 3 7.00 Fair CLR 69.1 64.9 87% 30.05 1017.0
23 21:52 W 6 7.00 Partly Cloudy SCT120 70 66 87% 30.05 1017.0 0.01
23 20:52 Calm 8.00 Light Rain SCT110 73 64 74% 30.03 1016.5 0.01
23 19:52 W 7 8.00 Fair CLR 73.9 64.9 74% 30.02 1016.0
23 18:52 NW 9 G 23 2.50 Thunderstorm Heavy Rain FEW027 BKN040 OVC070 73 66 84 73 79% 30.01 1015.8 0.04 0.04
23 17:52 SW 13 G 23 10.00 A Few Clouds FEW039 80.1 69.1 69% 83 30 1015.3
23 16:52 SW 15 10.00 Partly Cloudy SCT037 82 66.9 60% 85 29.97 1014.5
23 15:52 SW 15 G 26 10.00 A Few Clouds FEW040 82.9 68 61% 86 29.98 1014.6
23 14:52 SW 16 G 25 10.00 Partly Cloudy SCT040 82.9 66.9 59% 86 29.99 1014.8
23 13:52 SW 13 10.00 Fair CLR 82.9 66 57% 85 30 1015.6
23 12:52 SW 13 G 20 10.00 A Few Clouds FEW037 82.9 66.9 82.9 66.9 59% 86 30.02 1016.0
23 11:52 SW 12 G 20 10.00 Fair CLR 81 66.9 62% 83 30.02 1016.1
23 10:52 SW 12 10.00 Fair CLR 79 66 65% 81 30.03 1016.4
23 09:52 SW 8 10.00 Fair CLR 77 66.9 71% 79 30.02 1016.2
23 08:52 SW 7 10.00 Fair CLR 73.9 64.9 74% 30.03 1016.4
23 07:52 SW 6 10.00 Fair CLR 71.1 63 76% 30.02 1016.2
23 06:52 S 5 8.00 Mostly Cloudy BKN120 66.9 64 66.9 64 91% 30.01 1015.6
23 05:52 NW 3 6.00 Fog/Mist CLR 64 61 90% 30.01 1015.8
23 04:52 SW 3 7.00 Fair CLR 64 62.1 93% 30 1015.5
23 03:52 NW 3 0.75 Fog/Mist NULL 64.9 64 97% 30 1015.2
23 02:52 Calm 7.00 Fair CLR 66 64 93% 30 1015.4
23 01:52 SE 6 6.00 Fog/Mist CLR 64.9 63 93% 29.99 1015.2
23 00:52 SW 3 4.00 Fog/Mist CLR 66.9 64.9 75.9 66.9 93% 30.01 1015.8
22 23:52 Calm 9.00 Fair CLR 68 64 87% 30.01 1015.8
22 22:52 Calm 10.00 Fair CLR 69.1 64.9 87% 30.01 1015.7
22 21:52 Calm 10.00 Fair CLR 70 64.9 84% 30.01 1015.7
22 20:52 W 5 10.00 Fair CLR 71.1 64.9 81% 30 1015.3
22 19:52 Calm 10.00 Fair CLR 75.9 66 72% 77 29.98 1014.7
22 18:52 Calm 10.00 A Few Clouds FEW042 77 64 84 73.9 64% 79 29.98 1014.7
22 17:52 E 5 10.00 Fair CLR 75.9 64 67% 78 29.98 1014.8
22 16:52 W 9 10.00 A Few Clouds FEW050 75 64.9 71% 77 29.99 1015.1
22 15:52 Vrbl 5 10.00 Mostly Cloudy SCT047 BKN055 84 62.1 48% 85 29.99 1014.8
22 14:52 E 3 10.00 A Few Clouds FEW075 82 61 49% 83 30 1015.3
22 13:52 E 5 10.00 Partly Cloudy SCT060 81 62.1 53% 82 30.02 1016.0
22 12:52 NW 3 10.00 Partly Cloudy FEW042 SCT070 81 63 81 66.9 54% 82 30.03 1016.3
22 11:52 Calm 10.00 Mostly Cloudy FEW048 BKN065 79 61 54% 80 30.04 1016.9
22 10:52 Calm 10.00 Mostly Cloudy BKN065 78.1 63 60% 80 30.06 1017.3
22 09:52 NE 5 10.00 A Few Clouds FEW041 FEW065 77 62.1 60% 79 30.06 1017.3
22 08:52 Calm 10.00 Mostly Cloudy BKN042 73 66 79% 30.06 1017.5
22 07:52 N 5 10.00 Overcast OVC043 69.1 64.9 87% 30.06 1017.4
22 06:52 N 3 7.00 Mostly Cloudy BKN043 66.9 64 68 63 91% 30.04 1016.9
22 05:52 N 5 6.00 Fog/Mist SCT043 64 62.1 93% 30.05 1017.1
22 04:52 N 3 4.00 Fog/Mist CLR 64 63 96% 30.05 1017.2
22 03:52 N 5 6.00 Fog/Mist BKN049 64.9 63 93% 30.05 1017.2
22 02:52 Calm 8.00 Fair CLR 66.9 64 91% 30.05 1017.3
22 01:52 N 3 8.00 Mostly Cloudy BKN060 66.9 64.9 93% 30.06 1017.6
21 23:52 NE 3 10.00 Fair CLR 68 64.9 90% 30.09 1018.6
Date Time (cdt) Wind (mph) Vis. (mi.) Weather Sky Cond. Air Dwpt Max. Min. Relative Humidity Wind Chill (F) Heat Index (F) altimeter (in) sea level (mb) 1 hr 3 hr 6 hr
6 hour
Temperature (F) Pressure Precipitation (in)
3 day Weather History for - KDPA
Weather observations for the past three days for
Chicago / West Chicago, Dupage Airport
Imperial (Metric)
Date Time (cdt) Wind (mph) Vis. (mi.) Weather Sky Cond. Temperature (F) Relative Humidity Wind Chill (F) Heat Index (F) Pressure Precipitation (in)
Air Dwpt 6 hour altimeter (in) sea level (mb) 1 hr 3 hr 6 hr
Max. Min.
24 22:52 NE 6 10.00 Fair CLR 66.9 61 81% 30.19 1021.8
24 21:52 NE 6 10.00 Mostly Cloudy BKN041 69.1 61 76% 30.18 1021.6
24 20:52 E 5 10.00 Overcast SCT029 OVC036 71.1 61 71% 30.17 1021.3
24 19:52 E 8 10.00 Overcast BKN029 OVC034 71.1 62.1 73% 30.16 1021.0
24 18:52 E 10 10.00 Partly Cloudy SCT036 73 63 77 73 71% 30.14 1020.3
24 17:52 E 8 10.00 Overcast BKN030 OVC038 73.9 63 69% 30.13 1020.0
24 16:52 NE 9 10.00 Overcast OVC027 75 64 69% 77 30.13 1019.9
24 15:52 Vrbl 6 10.00 Mostly Cloudy BKN055 BKN070 75 64 69% 77 30.14 1020.1
24 14:52 NE 5 10.00 Overcast FEW026 BKN040 OVC047 75 64 69% 77 30.13 1019.9
24 13:52 E 8 10.00 Overcast OVC050 75.9 64.9 69% 78 30.13 1019.9
24 12:52 N 8 10.00 Overcast SCT027 BKN034 OVC045 75 64 75.9 68 69% 77 30.15 1020.5
24 11:52 E 6 10.00 Overcast SCT023 OVC030 73.9 64.9 74% 30.14 1020.3
24 10:52 E 5 10.00 Overcast BKN020 BKN028 OVC046 73.9 64.9 74% 30.14 1020.3
24 09:52 NE 5 10.00 Overcast SCT013 OVC020 73 64.9 76% 30.14 1020.1
24 08:52 NE 5 10.00 Mostly Cloudy BKN012 BKN017 72 66 82% 30.14 1020.0
24 07:52 NE 6 8.00 Mostly Cloudy BKN017 69.1 64.9 87% 30.12 1019.5
24 06:52 N 3 5.00 Fog/Mist FEW011 68 64.9 68 64.9 90% 30.1 1018.9
24 05:52 N 3 6.00 Fog/Mist OVC011 66.9 64 91% 30.1 1018.7
24 04:52 NW 7 7.00 Overcast OVC009 66.9 64 91% 30.08 1018.1
24 03:52 NW 5 6.00 Fog/Mist OVC010 66.9 64 91% 30.07 1017.7
24 02:52 Calm 6.00 Fog/Mist CLR 66 63 90% 30.06 1017.3
24 01:52 W 3 6.00 Fog/Mist BKN065 BKN120 66.9 64 91% 30.06 1017.4
24 00:52 W 5 3.00 Light Rain Fog/Mist FEW042 BKN080 OVC110 68 64 73.9 66.9 87% 30.04 1016.8 0.03 0.04
23 23:52 W 7 7.00 A Few Clouds FEW110 69.1 64.9 87% 30.05 1017.2
23 22:52 W 3 7.00 Fair CLR 69.1 64.9 87% 30.05 1017.0
23 21:52 W 6 7.00 Partly Cloudy SCT120 70 66 87% 30.05 1017.0 0.01
23 20:52 Calm 8.00 Light Rain SCT110 73 64 74% 30.03 1016.5 0.01
23 19:52 W 7 8.00 Fair CLR 73.9 64.9 74% 30.02 1016.0
23 18:52 NW 9 G 23 2.50 Thunderstorm Heavy Rain FEW027 BKN040 OVC070 73 66 84 73 79% 30.01 1015.8 0.04 0.04
23 17:52 SW 13 G 23 10.00 A Few Clouds FEW039 80.1 69.1 69% 83 30 1015.3
23 16:52 SW 15 10.00 Partly Cloudy SCT037 82 66.9 60% 85 29.97 1014.5
23 15:52 SW 15 G 26 10.00 A Few Clouds FEW040 82.9 68 61% 86 29.98 1014.6
23 14:52 SW 16 G 25 10.00 Partly Cloudy SCT040 82.9 66.9 59% 86 29.99 1014.8
23 13:52 SW 13 10.00 Fair CLR 82.9 66 57% 85 30 1015.6
23 12:52 SW 13 G 20 10.00 A Few Clouds FEW037 82.9 66.9 82.9 66.9 59% 86 30.02 1016.0
23 11:52 SW 12 G 20 10.00 Fair CLR 81 66.9 62% 83 30.02 1016.1
23 10:52 SW 12 10.00 Fair CLR 79 66 65% 81 30.03 1016.4
23 09:52 SW 8 10.00 Fair CLR 77 66.9 71% 79 30.02 1016.2
23 08:52 SW 7 10.00 Fair CLR 73.9 64.9 74% 30.03 1016.4
23 07:52 SW 6 10.00 Fair CLR 71.1 63 76% 30.02 1016.2
23 06:52 S 5 8.00 Mostly Cloudy BKN120 66.9 64 66.9 64 91% 30.01 1015.6
23 05:52 NW 3 6.00 Fog/Mist CLR 64 61 90% 30.01 1015.8
23 04:52 SW 3 7.00 Fair CLR 64 62.1 93% 30 1015.5
23 03:52 NW 3 0.75 Fog/Mist NULL 64.9 64 97% 30 1015.2
23 02:52 Calm 7.00 Fair CLR 66 64 93% 30 1015.4
23 01:52 SE 6 6.00 Fog/Mist CLR 64.9 63 93% 29.99 1015.2
23 00:52 SW 3 4.00 Fog/Mist CLR 66.9 64.9 75.9 66.9 93% 30.01 1015.8
22 23:52 Calm 9.00 Fair CLR 68 64 87% 30.01 1015.8
22 22:52 Calm 10.00 Fair CLR 69.1 64.9 87% 30.01 1015.7
22 21:52 Calm 10.00 Fair CLR 70 64.9 84% 30.01 1015.7
22 20:52 W 5 10.00 Fair CLR 71.1 64.9 81% 30 1015.3
22 19:52 Calm 10.00 Fair CLR 75.9 66 72% 77 29.98 1014.7
22 18:52 Calm 10.00 A Few Clouds FEW042 77 64 84 73.9 64% 79 29.98 1014.7
22 17:52 E 5 10.00 Fair CLR 75.9 64 67% 78 29.98 1014.8
22 16:52 W 9 10.00 A Few Clouds FEW050 75 64.9 71% 77 29.99 1015.1
22 15:52 Vrbl 5 10.00 Mostly Cloudy SCT047 BKN055 84 62.1 48% 85 29.99 1014.8
22 14:52 E 3 10.00 A Few Clouds FEW075 82 61 49% 83 30 1015.3
22 13:52 E 5 10.00 Partly Cloudy SCT060 81 62.1 53% 82 30.02 1016.0
22 12:52 NW 3 10.00 Partly Cloudy FEW042 SCT070 81 63 81 66.9 54% 82 30.03 1016.3
22 11:52 Calm 10.00 Mostly Cloudy FEW048 BKN065 79 61 54% 80 30.04 1016.9
22 10:52 Calm 10.00 Mostly Cloudy BKN065 78.1 63 60% 80 30.06 1017.3
22 09:52 NE 5 10.00 A Few Clouds FEW041 FEW065 77 62.1 60% 79 30.06 1017.3
22 08:52 Calm 10.00 Mostly Cloudy BKN042 73 66 79% 30.06 1017.5
22 07:52 N 5 10.00 Overcast OVC043 69.1 64.9 87% 30.06 1017.4
22 06:52 N 3 7.00 Mostly Cloudy BKN043 66.9 64 68 63 91% 30.04 1016.9
22 05:52 N 5 6.00 Fog/Mist SCT043 64 62.1 93% 30.05 1017.1
22 04:52 N 3 4.00 Fog/Mist CLR 64 63 96% 30.05 1017.2
22 03:52 N 5 6.00 Fog/Mist BKN049 64.9 63 93% 30.05 1017.2
22 02:52 Calm 8.00 Fair CLR 66.9 64 91% 30.05 1017.3
22 01:52 N 3 8.00 Mostly Cloudy BKN060 66.9 64.9 93% 30.06 1017.6
21 23:52 NE 3 10.00 Fair CLR 68 64.9 90% 30.09 1018.6
Date Time (cdt) Wind (mph) Vis. (mi.) Weather Sky Cond. Air Dwpt Max. Min. Relative Humidity Wind Chill (F) Heat Index (F) altimeter (in) sea level (mb) 1 hr 3 hr 6 hr
6 hour
Temperature (F) Pressure Precipitation (in)


Weather History V4.0 ©2002- Airsports Net